COSMOS 2251 DEB, 34024

Orbit data source: Space-Track

COSMOS 2251 DEB, 34024 is space debris in LEO originally from a launch on Wed, 16 Jun 1993 UTC launched from the Plesetsk Missile And Space Complex (PKMTR). The debris from Iridium 33, an American commercial communications satellite, has been tracked extensively since its accidental collision with the defunct Russian satellite Cosmos 2251 in 2009. This event, occurring at high speed in low Earth orbit (LEO), generated thousands of pieces of space debris, significantly increasing the risk of further collisions. The Iridium 33 debris cloud has impacted space traffic management and orbital debris mitigation strategies, making it a subject of ongoing study in space situational awareness.

Loading next visibility...
Identifier
34024, 1993-036HK
Orbit
LEO
Country
Flag of CISCIS
Related business
Manufacturer
Unknown
Mission
Spacecraft
Bus & Motor
Unknown
Mass
Unknown
Launch date (UTC)
1993-06-16 (33 years ago)
Launch vehicle
Unknown
Launch site
Plesetsk Missile And Space Complex (PKMTR)
Object type
Payload
Rocket body
Debris
Shape & HBR
Unknown shape, 0.1 m
Radar Cross Section
Small (<0.1 m²)

Expand to show TLE details & history
Last TLE update: 10 hours ago

TLE from 10 hours ago
0 COSMOS 2251 DEB
1 34024U 93036HK  26061.75766008  .00000572  00000-0  20742-3 0  9990
2 34024  74.0473 169.3228 0021701 207.6227 271.6078 14.35498551891721
Epoch: 2026-03-02T18:11Z
TLE epoch observation values (Epoch: 2026-03-02T18:11:01.830Z)
Latitude
57.3624°
Longitude
-110.33772°
Altitude
782.289 km
Speed
7.469 km/s
True Right ascension
21h 31m 51s
True Declination
57° 12' 24"
Sunlit
Object was in daylight at epoch
Visualization orbit readout
Latitude
Unknown
Longitude
Unknown
Altitude
Unknown
Speed
Unknown
Apparent Right ascension
Unknown
Apparent Declination
Unknown
Sunlit
N/A
Visualization observer readout
Local Sidereal Time
07:40:54
Azimuth
Unknown
Elevation
Unknown
Doppler factor
Unknown
Orbital elements
Apogee altitude
786.548 km
Perigee altitude
755.519 km
Semi-major axis
7,149.171 km
Eccentricity
0.00217
Inclination
74.0473°
RAAN
169.3228°
Arg. of periapsis
207.6227°
True anomaly
271.3592°
Mean anomaly
271.6078°
Eccentric anomaly
271.4835°
Mean motion
3.59054 °/min
Orbital period
100.26 mins
BSTAR
0.00020742

Documentation

Showing up to 5 results
|